Content
SEND FEEDBACK

Daily
Averages
Monthly
Summary
Canada

SCUDDER, ONTARIO


Home > North America > Canada > Ontario
Elevation: 574 feet     Latitude: 41 45N     Longitude: 082 40W

WEATHER
 
SELECT A DAY
Number of Records: 125,371;   Date Range: 12/10/00 - 12/16/14
 
SHARE

PRINT THIS DATA

[ ← Previous Day ]
WEATHER ALMANAC - MARCH 19, 2013
[ Next Day → ]
[ °C ]   °F
Weather ElementAverageHighLow
Temperature28.6 °F35 °F (2:00 am)24.8 °F (9:00 am)
Dewpoint19.1 °F31.5 °F (1:00 am)12.9 °F (12:00 pm)
Humidity67 %88 % (2:00 am)47 % (2:00 pm)
Barometer29.81 in29.97 in (11:00 pm)29.66 in (2:00 am)
Wind Speed18 mph23 mph (9:00 am)
Wind Gust33.4 mph (5:00 am)
Weather ElementAverage
Wind DirectionWSW (263.8 °)

Weather ElementTotal
Precipitation---
Heating Degree Days35.1 (Base 65)
Averaged from 26 records on March 19, 2013
WEATHER CONDITIONS BREAKOUT
WIND DIRECTION BREAKOUT
WEATHER BY HOUR - MARCH 19, 2013
[ °C ]   °F
Local TimeTemperatureDewpointHumidityBarometerVisibilityWind DirectionWind SpeedGust SpeedPrecipitationEventsConditions
1:00 AM34.9 °F31.5 °F87 %29.67 inWSW (250°)17.3 mph
2:00 AM35.0 °F31.0 °F82 %29.66 inWSW (240°)13.8 mph
2:00 AM34.7 °F31.5 °F88 %29.66 inWSW (240°)13.8 mph20.7 mph
3:00 AM33.1 °F24.3 °F70 %29.67 inWSW (250°)19.6 mph31.1 mph
4:00 AM31.3 °F23.4 °F72 %29.68 inWSW (250°)20.7 mph28.8 mph
5:00 AM29.7 °F22.3 °F74 %29.71 inWest (260°)19.6 mph33.4 mph
6:00 AM28.0 °F19.6 °F71 %29.74 inWest (280°)13.8 mph23.0 mph
7:00 AM26.8 °F19.0 °F73 %29.75 inWSW (250°)21.9 mph29.9 mph
8:00 AM26.0 °F18.0 °F60 %29.78 inWSW (250°)21.9 mph
8:00 AM25.7 °F17.6 °F71 %29.78 inWSW (250°)21.9 mph31.1 mph
9:00 AM24.8 °F14.7 °F66 %29.78 inWest (260°)23.0 mph33.4 mph
10:00 AM25.0 °F15.3 °F67 %29.79 inWest (270°)18.4 mph25.3 mph
11:00 AM25.9 °F18.0 °F72 %29.79 inWest (260°)16.1 mph21.9 mph
12:00 PM25.5 °F12.9 °F59 %29.81 inWest (260°)20.7 mph28.8 mph
1:00 PM25.5 °F16.5 °F69 %29.83 inWest (260°)19.6 mph29.9 mph
2:00 PM27.0 °F15.0 °F47 %29.83 inWest (260°)21.9 mph
2:00 PM27.0 °F14.7 °F60 %29.83 inWest (260°)21.9 mph29.9 mph
3:00 PM27.0 °F16.5 °F65 %29.84 inWest (260°)20.7 mph27.6 mph
4:00 PM27.7 °F16.7 °F63 %29.86 inWest (270°)19.6 mph27.6 mph
5:00 PM28.8 °F16.7 °F61 %29.88 inWest (280°)19.6 mph29.9 mph
6:00 PM28.9 °F18.5 °F65 %29.89 inWest (280°)16.1 mph26.5 mph
7:00 PM29.8 °F18.0 °F61 %29.91 inWest (280°)15.0 mph21.9 mph
8:00 PM29.8 °F16.7 °F58 %29.93 inWest (280°)15.0 mph23.0 mph
9:00 PM29.7 °F16.7 °F59 %29.95 inWest (280°)15.0 mph24.2 mph
10:00 PM28.6 °F17.1 °F62 %29.96 inWNW (290°)9.2 mph
11:00 PM28.0 °F15.6 °F60 %29.97 inWNW (290°)12.7 mph19.6 mph
Hourly data recorded from CXHA, located miles away from Scudder, Ontario







STORIES FROM OUR PARTNERS